QPF
0.00 0.00 0.00 0.00 0.00 0.00 0.00 0.00 0.00 0.00 0.00 0.00 0.00 0.00 0.00 0.00 0.00 0.00 0.00 0.00 0.00 0.00 0.01 0.01 0.01 0.01 0.00 0.00 0.00 0.00 0.00 0.00 0.00 0.00 0.00 0.00 0.00 0.00 0.00 0.00 0.00 0.00 0.00
0.00 0.00 0.00 0.00 0.00 0.00 0.00 0.00 0.00 0.00 0.00 0.00 0.00 0.00 0.00 0.00 0.00 0.00 0.00 0.00 0.00 0.00 0.01 0.01 0.01 0.01 0.01 0.00 0.00 0.00 0.00 0.00 0.00 0.00 0.00 0.00 0.00 0.00 0.00 0.00 0.00 0.00 0.00
0.00 0.00 0.00 0.00 0.00 0.00 0.00 0.00 0.00 0.00 0.00 0.00 0.00 0.00 0.00 0.00 0.00 0.00 0.00 0.00 0.00 0.00 0.00 0.01 0.01 0.01 0.01 0.01 0.01 0.00 0.00 0.00 0.00 0.00 0.00 0.00 0.00 0.00 0.00 0.00 0.00 0.00 0.00
0.00 0.00 0.00 0.00 0.00 0.00 0.00 0.00 0.00 0.00 0.00 0.00 0.00 0.00 0.00 0.00 0.00 0.00 0.00 0.00 0.00 0.00 0.00 0.00 0.01 0.02 0.02 0.01 0.01 0.01 0.01 0.00 0.00 0.00 0.00 0.00 0.00 0.00 0.00 0.00 0.00 0.00 0.00
0.00 0.00 0.00 0.00 0.00 0.00 0.00 0.00 0.00 0.00 0.00 0.00 0.01 0.01 0.01 0.00 0.00 0.00 0.00 0.00 0.00 0.01 0.01 0.00 0.00 0.01 0.01 0.01 0.01 0.02 0.02 0.01 0.01 0.00 0.00 0.00 0.00 0.00 0.00 0.00 0.00 0.00 0.00
0.00 0.00 0.00 0.01 0.00 0.00 0.00 0.00 0.00 0.00 0.00 0.01 0.01 0.00 0.00 0.00 0.00 0.00 0.01 0.01 0.01 0.01 0.01 0.01 0.00 0.00 0.00 0.01 0.02 0.02 0.03 0.03 0.02 0.01 0.01 0.00 0.00 0.00 0.00 0.00 0.00 0.00 0.00
0.01 0.01 0.00 0.00 0.01 0.00 0.01 0.01 0.01 0.01 0.01 0.00 0.01 0.00 0.00 0.00 0.00 0.00 0.00 0.00 0.00 0.01 0.01 0.01 0.01 0.00 0.00 0.01 0.01 0.01 0.03 0.04 0.05 0.04 0.02 0.01 0.01 0.00 0.00 0.00 0.00 0.00 0.00
0.01 0.01 0.01 0.01 0.01 0.01 0.01 0.01 0.01 0.01 0.01 0.01 0.01 0.01 0.01 0.00 0.00 0.00 0.00 0.00 0.00 0.00 0.00 0.00 0.00 0.00 0.00 0.00 0.01 0.01 0.02 0.04 0.07 0.09 0.07 0.04 0.03 0.02 0.01 0.01 0.01 0.01 0.01
0.00 0.00 0.00 0.01 0.01 0.01 0.01 0.01 0.01 0.01 0.01 0.01 0.01 0.02 0.02 0.01 0.00 0.00 0.00 0.00 0.00 0.00 0.00 0.00 0.00 0.00 0.01 0.01 0.01 0.01 0.02 0.03 0.06 0.11 0.15 0.13 0.08 0.05 0.03 0.03 0.02 0.02 0.02
0.00 0.00 0.00 0.00 0.00 0.00 0.01 0.01 0.01 0.01 0.01 0.01 0.01 0.01 0.01 0.01 0.02 0.01 0.00 0.00 0.00 0.00 0.00 0.00 0.00 0.00 0.01 0.01 0.01 0.02 0.03 0.04 0.07 0.11 0.17 0.22 0.20 0.15 0.11 0.08 0.06 0.05 0.05
0.00 0.00 0.00 0.00 0.00 0.00 0.00 0.00 0.00 0.00 0.01 0.01 0.01 0.01 0.01 0.01 0.01 0.01 0.01 0.00 0.00 0.00 0.00 0.00 0.00 0.00 0.00 0.01 0.01 0.01 0.03 0.05 0.08 0.13 0.19 0.26 0.30 0.29 0.24 0.19 0.15 0.12 0.11
0.00 0.00 0.00 0.00 0.00 0.00 0.00 0.00 0.00 0.01 0.01 0.01 0.01 0.01 0.01 0.01 0.01 0.01 0.01 0.01 0.00 0.00 0.00 0.00 0.00 0.00 0.00 0.01 0.01 0.03 0.04 0.06 0.09 0.14 0.20 0.28 0.34 0.35 0.35 0.32 0.29 0.24 0.20
0.00 0.00 0.00 0.00 0.00 0.00 0.00 0.00 0.00 0.00 0.01 0.01 0.01 0.01 0.01 0.01 0.01 0.01 0.01 0.01 0.00 0.00 0.00 0.00 0.00 0.00 0.00 0.01 0.01 0.03 0.04 0.06 0.09 0.15 0.22 0.31 0.34 0.34 0.31 0.30 0.33 0.34 0.30
0.00 0.00 0.00 0.00 0.00 0.00 0.00 0.00 0.00 0.00 0.00 0.00 0.00 0.00 0.01 0.00 0.01 0.01 0.01 0.01 0.01 0.00 0.00 0.00 0.00 0.00 0.00 0.00 0.01 0.03 0.04 0.06 0.09 0.16 0.25 0.34 0.34 0.30 0.26 0.25 0.24 0.25 0.24
0.00 0.00 0.00 0.00 0.00 0.00 0.00 0.00 0.00 0.00 0.00 0.00 0.00 0.00 0.00 0.00 0.00 0.00 0.00 0.00 0.01 0.01 0.00 0.00 0.00 0.00 0.00 0.00 0.01 0.02 0.03 0.07 0.11 0.16 0.21 0.24 0.23 0.20 0.19 0.20 0.19 0.18 0.16
0.00 0.00 0.00 0.00 0.00 0.00 0.00 0.00 0.00 0.00 0.00 0.00 0.00 0.00 0.00 0.00 0.00 0.00 0.00 0.00 0.00 0.00 0.00 0.00 0.00 0.00 0.00 0.01 0.02 0.02 0.03 0.07 0.10 0.13 0.15 0.16 0.17 0.17 0.16 0.15 0.14 0.13 0.11
0.00 0.00 0.00 0.00 0.00 0.00 0.00 0.00 0.00 0.00 0.00 0.00 0.00 0.00 0.00 0.00 0.00 0.00 0.00 0.00 0.00 0.00 0.00 0.00 0.00 0.00 0.01 0.01 0.02 0.02 0.03 0.05 0.07 0.10 0.11 0.11 0.11 0.11 0.10 0.10 0.09 0.08 0.07
0.00 0.00 0.00 0.00 0.00 0.00 0.00 0.00 0.00 0.00 0.00 0.00 0.00 0.00 0.00 0.00 0.00 0.00 0.00 0.00 0.00 0.00 0.00 0.00 0.00 0.00 0.01 0.01 0.01 0.02 0.02 0.03 0.04 0.05 0.06 0.06 0.06 0.06 0.05 0.04 0.04 0.04 0.03
0.00 0.00 0.00 0.00 0.00 0.00 0.00 0.00 0.00 0.00 0.00 0.00 0.00 0.00 0.00 0.00 0.00 0.00 0.00 0.00 0.00 0.00 0.00 0.00 0.00 0.00 0.00 0.00 0.01 0.01 0.01 0.01 0.01 0.02 0.02 0.02 0.02 0.02 0.02 0.02 0.01 0.01 0.01
0.00 0.00 0.00 0.00 0.00 0.00 0.00 0.00 0.00 0.00 0.00 0.00 0.00 0.00 0.00 0.00 0.00 0.00 0.00 0.00 0.00 0.00 0.00 0.00 0.00 0.00 0.00 0.00 0.00 0.00 0.00 0.00 0.00 0.00 0.00 0.01 0.01 0.01 0.00 0.00 0.00 0.00 0.00
0.00 0.00 0.00 0.00 0.00 0.00 0.00 0.00 0.00 0.00 0.00 0.00 0.00 0.00 0.00 0.00 0.00 0.00 0.00 0.00 0.00 0.00 0.00 0.00 0.00 0.00 0.00 0.00 0.00 0.00 0.00 0.00 0.00 0.00 0.00 0.00 0.00 0.00 0.00 0.00 0.00 0.00 0.00
0.00 0.00 0.00 0.00 0.00 0.00 0.00 0.00 0.00 0.00 0.00 0.00 0.00 0.00 0.00 0.00 0.00 0.00 0.00 0.00 0.00 0.00 0.00 0.00 0.00 0.00 0.00 0.00 0.00 0.00 0.00 0.00 0.00 0.00 0.00 0.00 0.00 0.00 0.00 0.00 0.00 0.00 0.00
0.00 0.00 0.00 0.00 0.00 0.00 0.00 0.00 0.00 0.00 0.00 0.00 0.00 0.00 0.00 0.00 0.00 0.00 0.00 0.00 0.00 0.00 0.00 0.00 0.00 0.00 0.00 0.00 0.00 0.00 0.00 0.00 0.00 0.00 0.00 0.00 0.00 0.00 0.00 0.00 0.00 0.00 0.00
0.00 0.00 0.00 0.00 0.00 0.00 0.00 0.00 0.00 0.00 0.00 0.00 0.00 0.00 0.00 0.00 0.00 0.00 0.00 0.00 0.00 0.00 0.00 0.00 0.00 0.00 0.00 0.00 0.00 0.00 0.00 0.00 0.00 0.00 0.00 0.00 0.00 0.00 0.00 0.00 0.00 0.00 0.00
0.00 0.00 0.00 0.00 0.00 0.00 0.00 0.00 0.00 0.00 0.00 0.00 0.00 0.00 0.00 0.00 0.00 0.00 0.00 0.00 0.00 0.00 0.00 0.00 0.00 0.00 0.00 0.00 0.00 0.00 0.00 0.00 0.00 0.00 0.00 0.00 0.00 0.00 0.00 0.00 0.00 0.00 0.00
0.00 0.00 0.00 0.00 0.00 0.00 0.00 0.00 0.00 0.00 0.00 0.00 0.00 0.00 0.00 0.00 0.00 0.00 0.00 0.00 0.00 0.00 0.00 0.00 0.00 0.00 0.00 0.00 0.00 0.00 0.00 0.00 0.00 0.00 0.00 0.00 0.00 0.00 0.00 0.00 0.00 0.00 0.00
MSLP
1020.96 1021.10 1021.19 1021.24 1021.26 1021.25 1021.24 1021.24 1021.25 1021.26 1021.25 1021.22 1021.16 1021.06 1020.95 1020.83 1020.74 1020.69 1020.69 1020.75 1020.85 1020.97 1021.09 1021.20 1021.28 1021.34 1021.38 1021.41 1021.44 1021.50 1021.58 1021.67 1021.77 1021.87 1021.96 1022.02 1022.05 1022.05 1022.02 1021.97 1021.90 1021.84 1021.77
1020.67 1020.79 1020.88 1020.93 1020.95 1020.96 1020.96 1020.97 1020.98 1020.99 1020.98 1020.96 1020.91 1020.82 1020.72 1020.61 1020.52 1020.46 1020.45 1020.48 1020.55 1020.65 1020.75 1020.85 1020.93 1021.00 1021.05 1021.09 1021.15 1021.22 1021.32 1021.45 1021.60 1021.75 1021.90 1022.03 1022.12 1022.18 1022.21 1022.20 1022.17 1022.13 1022.08
1020.37 1020.48 1020.56 1020.63 1020.67 1020.69 1020.71 1020.74 1020.76 1020.78 1020.78 1020.77 1020.72 1020.65 1020.54 1020.43 1020.32 1020.24 1020.19 1020.18 1020.22 1020.28 1020.36 1020.44 1020.51 1020.57 1020.63 1020.68 1020.75 1020.85 1020.97 1021.12 1021.30 1021.50 1021.70 1021.89 1022.05 1022.18 1022.27 1022.31 1022.33 1022.32 1022.30
1020.09 1020.18 1020.27 1020.35 1020.41 1020.46 1020.50 1020.54 1020.58 1020.61 1020.63 1020.63 1020.59 1020.52 1020.42 1020.29 1020.16 1020.04 1019.95 1019.90 1019.88 1019.90 1019.94 1020.00 1020.06 1020.11 1020.17 1020.23 1020.30 1020.40 1020.53 1020.69 1020.89 1021.12 1021.36 1021.60 1021.83 1022.02 1022.18 1022.29 1022.36 1022.40 1022.42
1019.82 1019.92 1020.01 1020.09 1020.17 1020.23 1020.30 1020.36 1020.42 1020.46 1020.50 1020.50 1020.48 1020.41 1020.31 1020.18 1020.03 1019.88 1019.75 1019.65 1019.58 1019.56 1019.56 1019.59 1019.63 1019.68 1019.73 1019.78 1019.84 1019.93 1020.05 1020.20 1020.40 1020.64 1020.90 1021.18 1021.46 1021.73 1021.95 1022.14 1022.28 1022.38 1022.45
1019.59 1019.68 1019.77 1019.85 1019.94 1020.01 1020.08 1020.15 1020.22 1020.28 1020.33 1020.35 1020.34 1020.29 1020.19 1020.07 1019.91 1019.74 1019.59 1019.45 1019.35 1019.28 1019.26 1019.26 1019.28 1019.32 1019.35 1019.39 1019.44 1019.50 1019.59 1019.71 1019.89 1020.11 1020.37 1020.67 1020.99 1021.31 1021.61 1021.87 1022.09 1022.27 1022.40
1019.39 1019.47 1019.55 1019.62 1019.70 1019.76 1019.83 1019.90 1019.96 1020.02 1020.08 1020.12 1020.13 1020.10 1020.04 1019.93 1019.78 1019.62 1019.46 1019.30 1019.18 1019.10 1019.05 1019.04 1019.05 1019.08 1019.10 1019.13 1019.15 1019.17 1019.22 1019.29 1019.41 1019.59 1019.82 1020.11 1020.45 1020.80 1021.16 1021.51 1021.82 1022.08 1022.29
1019.24 1019.30 1019.35 1019.40 1019.45 1019.49 1019.53 1019.58 1019.62 1019.68 1019.74 1019.80 1019.84 1019.85 1019.82 1019.75 1019.64 1019.50 1019.36 1019.21 1019.09 1019.01 1018.96 1018.94 1018.95 1018.98 1019.00 1019.01 1019.00 1018.98 1018.97 1018.98 1019.03 1019.14 1019.32 1019.57 1019.89 1020.26 1020.67 1021.08 1021.47 1021.82 1022.12
1019.15 1019.18 1019.20 1019.21 1019.21 1019.21 1019.21 1019.21 1019.23 1019.27 1019.33 1019.40 1019.47 1019.52 1019.54 1019.53 1019.48 1019.39 1019.28 1019.17 1019.07 1019.00 1018.96 1018.96 1018.98 1019.02 1019.04 1019.04 1019.01 1018.95 1018.88 1018.82 1018.78 1018.81 1018.91 1019.10 1019.38 1019.74 1020.16 1020.62 1021.07 1021.51 1021.90
1019.14 1019.13 1019.10 1019.07 1019.02 1018.96 1018.90 1018.86 1018.83 1018.84 1018.89 1018.97 1019.07 1019.17 1019.26 1019.31 1019.32 1019.29 1019.23 1019.16 1019.10 1019.06 1019.05 1019.07 1019.11 1019.16 1019.19 1019.20 1019.15 1019.07 1018.94 1018.81 1018.69 1018.62 1018.64 1018.75 1018.96 1019.29 1019.70 1020.17 1020.67 1021.16 1021.63
1019.20 1019.16 1019.09 1019.01 1018.90 1018.78 1018.66 1018.56 1018.49 1018.47 1018.51 1018.59 1018.72 1018.86 1019.00 1019.11 1019.19 1019.22 1019.22 1019.20 1019.17 1019.16 1019.18 1019.23 1019.30 1019.37 1019.42 1019.44 1019.40 1019.29 1019.14 1018.95 1018.75 1018.60 1018.52 1018.54 1018.68 1018.94 1019.31 1019.78 1020.29 1020.82 1021.34
1019.34 1019.26 1019.16 1019.04 1018.88 1018.71 1018.54 1018.38 1018.27 1018.22 1018.24 1018.33 1018.48 1018.66 1018.84 1019.01 1019.14 1019.23 1019.27 1019.29 1019.29 1019.31 1019.35 1019.42 1019.51 1019.61 1019.68 1019.72 1019.69 1019.59 1019.42 1019.19 1018.94 1018.72 1018.56 1018.50 1018.55 1018.74 1019.06 1019.49 1019.99 1020.53 1021.06
1019.53 1019.44 1019.31 1019.15 1018.97 1018.76 1018.55 1018.36 1018.22 1018.14 1018.15 1018.25 1018.41 1018.61 1018.83 1019.04 1019.21 1019.34 1019.41 1019.44 1019.46 1019.49 1019.54 1019.62 1019.72 1019.84 1019.94 1020.00 1019.99 1019.91 1019.74 1019.50 1019.23 1018.96 1018.74 1018.61 1018.60 1018.72 1018.97 1019.34 1019.80 1020.32 1020.85
1019.75 1019.65 1019.52 1019.35 1019.15 1018.92 1018.70 1018.49 1018.34 1018.26 1018.27 1018.37 1018.54 1018.76 1019.00 1019.24 1019.43 1019.56 1019.65 1019.69 1019.70 1019.72 1019.77 1019.84 1019.94 1020.07 1020.18 1020.26 1020.28 1020.22 1020.07 1019.85 1019.58 1019.29 1019.04 1018.87 1018.80 1018.86 1019.05 1019.37 1019.77 1020.24 1020.73
1019.98 1019.88 1019.75 1019.59 1019.40 1019.19 1018.97 1018.78 1018.63 1018.56 1018.58 1018.69 1018.88 1019.11 1019.36 1019.60 1019.79 1019.93 1020.00 1020.02 1020.02 1020.02 1020.03 1020.09 1020.18 1020.29 1020.41 1020.50 1020.54 1020.51 1020.39 1020.19 1019.94 1019.67 1019.42 1019.24 1019.14 1019.16 1019.30 1019.56 1019.91 1020.31 1020.74
1020.19 1020.11 1020.01 1019.87 1019.71 1019.53 1019.34 1019.18 1019.07 1019.03 1019.07 1019.20 1019.39 1019.63 1019.88 1020.11 1020.29 1020.40 1020.45 1020.45 1020.42 1020.38 1020.36 1020.38 1020.44 1020.53 1020.64 1020.73 1020.78 1020.77 1020.68 1020.52 1020.31 1020.07 1019.85 1019.67 1019.57 1019.57 1019.68 1019.89 1020.17 1020.51 1020.87
1020.41 1020.35 1020.27 1020.18 1020.06 1019.92 1019.79 1019.68 1019.61 1019.61 1019.69 1019.83 1020.04 1020.27 1020.51 1020.72 1020.87 1020.96 1020.98 1020.94 1020.87 1020.79 1020.74 1020.72 1020.74 1020.80 1020.89 1020.96 1021.01 1021.01 1020.95 1020.82 1020.65 1020.45 1020.26 1020.11 1020.03 1020.03 1020.11 1020.29 1020.52 1020.79 1021.08
1020.64 1020.61 1020.57 1020.52 1020.44 1020.36 1020.29 1020.24 1020.22 1020.27 1020.37 1020.54 1020.74 1020.97 1021.18 1021.36 1021.49 1021.54 1021.52 1021.45 1021.35 1021.24 1021.15 1021.09 1021.08 1021.11 1021.16 1021.22 1021.25 1021.25 1021.19 1021.09 1020.94 1020.78 1020.63 1020.51 1020.44 1020.45 1020.52 1020.67 1020.86 1021.07 1021.29
1020.94 1020.93 1020.92 1020.91 1020.88 1020.85 1020.83 1020.83 1020.87 1020.95 1021.08 1021.25 1021.45 1021.65 1021.84 1021.98 1022.07 1022.09 1022.04 1021.95 1021.82 1021.69 1021.58 1021.49 1021.45 1021.45 1021.47 1021.49 1021.50 1021.48 1021.42 1021.33 1021.20 1021.06 1020.93 1020.83 1020.78 1020.78 1020.84 1020.96 1021.11 1021.27 1021.43
1021.31 1021.33 1021.35 1021.36 1021.37 1021.39 1021.41 1021.45 1021.52 1021.62 1021.76 1021.92 1022.10 1022.28 1022.43 1022.53 1022.58 1022.57 1022.50 1022.38 1022.25 1022.10 1021.98 1021.89 1021.83 1021.81 1021.80 1021.79 1021.78 1021.74 1021.66 1021.55 1021.42 1021.28 1021.15 1021.06 1021.00 1020.99 1021.03 1021.11 1021.22 1021.33 1021.43
1021.75 1021.80 1021.84 1021.88 1021.91 1021.95 1022.00 1022.06 1022.14 1022.25 1022.38 1022.53 1022.67 1022.81 1022.92 1022.98 1022.99 1022.94 1022.86 1022.73 1022.60 1022.46 1022.35 1022.26 1022.20 1022.17 1022.14 1022.12 1022.07 1022.01 1021.91 1021.78 1021.63 1021.47 1021.33 1021.21 1021.13 1021.09 1021.09 1021.12 1021.18 1021.23 1021.29
1022.25 1022.32 1022.38 1022.43 1022.48 1022.52 1022.57 1022.63 1022.71 1022.81 1022.92 1023.03 1023.14 1023.23 1023.29 1023.31 1023.29 1023.22 1023.12 1023.00 1022.87 1022.76 1022.66 1022.59 1022.54 1022.51 1022.48 1022.45 1022.39 1022.30 1022.18 1022.02 1021.85 1021.67 1021.49 1021.34 1021.21 1021.12 1021.06 1021.03 1021.02 1021.02 1021.01
1022.75 1022.84 1022.91 1022.97 1023.01 1023.05 1023.09 1023.14 1023.20 1023.28 1023.36 1023.43 1023.50 1023.55 1023.57 1023.55 1023.49 1023.41 1023.30 1023.19 1023.08 1022.99 1022.92 1022.87 1022.85 1022.83 1022.81 1022.77 1022.71 1022.61 1022.47 1022.30 1022.10 1021.89 1021.68 1021.47 1021.29 1021.14 1021.01 1020.90 1020.82 1020.75 1020.68
1023.18 1023.29 1023.37 1023.42 1023.46 1023.48 1023.51 1023.54 1023.58 1023.62 1023.67 1023.72 1023.76 1023.77 1023.75 1023.71 1023.64 1023.54 1023.44 1023.34 1023.25 1023.18 1023.14 1023.11 1023.11 1023.11 1023.11 1023.08 1023.02 1022.92 1022.78 1022.60 1022.39 1022.16 1021.91 1021.66 1021.43 1021.20 1021.00 1020.82 1020.65 1020.51 1020.38
1023.48 1023.61 1023.69 1023.74 1023.76 1023.77 1023.78 1023.79 1023.81 1023.84 1023.87 1023.90 1023.92 1023.91 1023.88 1023.82 1023.74 1023.65 1023.55 1023.46 1023.39 1023.34 1023.31 1023.31 1023.33 1023.34 1023.35 1023.34 1023.29 1023.21 1023.08 1022.91 1022.70 1022.45 1022.19 1021.91 1021.63 1021.35 1021.08 1020.82 1020.58 1020.36 1020.16
1023.60 1023.74 1023.83 1023.87 1023.88 1023.88 1023.88 1023.89 1023.90 1023.93 1023.96 1023.98 1024.00 1023.99 1023.96 1023.91 1023.83 1023.75 1023.66 1023.58 1023.52 1023.48 1023.46 1023.47 1023.49 1023.52 1023.53 1023.53 1023.50 1023.43 1023.32 1023.17 1022.98 1022.75 1022.48 1022.19 1021.89 1021.57 1021.24 1020.92 1020.61 1020.32 1020.06
Thickness
5696 5695 5694 5692 5692 5690 5689 5688 5687 5686 5683 5681 5679 5677 5675 5673 5671 5668 5666 5661 5657 5654 5651 5648 5644 5641 5637 5633 5630 5627 5624 5621 5619 5616 5614 5613 5611 5610 5609 5608 5608 5608 5608
5693 5692 5691 5690 5689 5688 5686 5685 5684 5682 5681 5679 5677 5675 5673 5670 5667 5665 5662 5659 5654 5650 5647 5643 5640 5637 5633 5629 5626 5622 5618 5615 5612 5609 5607 5605 5603 5602 5601 5600 5599 5599 5599
5690 5689 5688 5687 5687 5685 5683 5682 5681 5678 5676 5675 5674 5673 5670 5668 5664 5662 5659 5655 5652 5648 5644 5640 5636 5633 5629 5625 5622 5618 5614 5609 5606 5603 5600 5597 5595 5593 5592 5591 5590 5590 5590
5687 5686 5685 5684 5684 5682 5680 5679 5677 5676 5674 5672 5671 5670 5667 5664 5661 5658 5655 5651 5648 5645 5641 5636 5632 5628 5625 5621 5617 5614 5610 5605 5601 5598 5594 5591 5588 5585 5584 5582 5581 5581 5581
5684 5683 5682 5681 5680 5679 5677 5675 5673 5672 5670 5668 5666 5664 5662 5660 5657 5654 5651 5647 5643 5639 5636 5632 5627 5623 5620 5616 5613 5609 5606 5601 5596 5592 5588 5585 5581 5578 5575 5574 5573 5572 5572
5681 5679 5679 5678 5676 5675 5673 5672 5669 5667 5664 5662 5660 5657 5656 5655 5653 5650 5647 5643 5639 5634 5630 5626 5622 5619 5615 5611 5607 5604 5601 5597 5592 5587 5582 5578 5574 5571 5568 5565 5564 5563 5563
5676 5675 5674 5673 5672 5671 5670 5668 5665 5662 5659 5656 5652 5652 5654 5653 5650 5646 5642 5637 5633 5628 5623 5619 5616 5612 5610 5606 5602 5598 5594 5591 5586 5581 5577 5572 5567 5563 5560 5557 5555 5554 5553
5670 5670 5669 5669 5668 5666 5665 5664 5660 5657 5655 5651 5647 5644 5644 5648 5648 5640 5635 5629 5625 5621 5616 5612 5608 5605 5602 5599 5596 5591 5587 5583 5579 5574 5569 5564 5560 5555 5551 5548 5546 5544 5543
5663 5663 5663 5662 5662 5661 5660 5659 5656 5652 5649 5648 5643 5638 5635 5637 5637 5635 5628 5622 5617 5613 5609 5604 5600 5596 5593 5590 5587 5583 5578 5574 5570 5566 5561 5555 5550 5546 5543 5539 5536 5534 5533
5655 5655 5655 5655 5655 5654 5653 5652 5650 5647 5644 5641 5638 5633 5629 5627 5621 5621 5620 5616 5610 5605 5600 5595 5591 5588 5584 5580 5577 5572 5568 5564 5560 5557 5553 5547 5541 5536 5532 5529 5526 5524 5522
5646 5646 5646 5647 5647 5646 5646 5644 5643 5640 5637 5635 5632 5627 5622 5616 5611 5607 5607 5606 5602 5597 5592 5586 5582 5578 5574 5570 5566 5562 5557 5554 5550 5547 5543 5539 5533 5527 5521 5518 5515 5512 5510
5637 5637 5637 5637 5637 5637 5636 5635 5634 5633 5631 5628 5625 5621 5616 5611 5606 5601 5598 5595 5591 5588 5583 5577 5572 5568 5563 5560 5555 5551 5547 5543 5540 5536 5533 5529 5524 5518 5513 5509 5505 5501 5499
5628 5627 5627 5627 5627 5626 5626 5626 5625 5624 5622 5619 5616 5612 5608 5603 5598 5593 5588 5585 5581 5577 5573 5568 5561 5556 5551 5548 5544 5540 5537 5533 5529 5526 5523 5519 5514 5508 5503 5499 5496 5491 5489
5616 5615 5616 5616 5616 5616 5615 5615 5614 5612 5610 5607 5603 5600 5596 5591 5586 5582 5578 5575 5572 5569 5565 5560 5551 5544 5539 5536 5532 5529 5527 5523 5519 5516 5513 5509 5504 5499 5493 5489 5485 5481 5479
5604 5604 5604 5605 5605 5604 5604 5604 5602 5600 5597 5593 5590 5586 5582 5577 5572 5569 5565 5562 5560 5560 5557 5550 5542 5533 5528 5525 5522 5520 5517 5513 5510 5507 5503 5498 5494 5489 5484 5480 5476 5472 5470
5593 5593 5593 5593 5593 5592 5592 5591 5589 5586 5584 5580 5576 5573 5569 5564 5560 5556 5552 5549 5546 5546 5545 5536 5528 5521 5518 5515 5512 5509 5507 5504 5501 5498 5494 5489 5484 5480 5475 5471 5468 5464 5463
5580 5581 5581 5580 5580 5579 5578 5577 5575 5573 5570 5566 5563 5560 5555 5551 5548 5544 5540 5537 5534 5532 5532 5525 5516 5511 5509 5506 5503 5500 5498 5495 5492 5489 5485 5481 5477 5472 5468 5464 5461 5459 5457
5567 5567 5567 5567 5566 5565 5564 5563 5561 5559 5556 5553 5550 5546 5543 5539 5536 5532 5529 5525 5522 5519 5519 5515 5508 5503 5499 5496 5493 5491 5488 5486 5483 5479 5476 5473 5470 5466 5462 5459 5456 5454 5452
5554 5554 5554 5553 5552 5551 5550 5548 5547 5545 5542 5539 5537 5534 5531 5528 5524 5520 5517 5514 5511 5508 5506 5504 5499 5493 5490 5487 5485 5482 5479 5476 5473 5470 5467 5465 5462 5459 5456 5454 5451 5449 5447
5541 5541 5540 5540 5538 5537 5536 5534 5533 5531 5528 5525 5523 5520 5518 5516 5512 5509 5505 5502 5500 5499 5496 5494 5490 5486 5482 5478 5476 5474 5472 5468 5465 5461 5459 5456 5454 5451 5449 5447 5445 5442 5440
5528 5527 5527 5526 5525 5524 5523 5521 5520 5518 5516 5513 5510 5507 5505 5502 5500 5498 5495 5493 5491 5490 5488 5485 5482 5480 5476 5472 5469 5465 5464 5460 5457 5452 5451 5449 5447 5445 5443 5440 5437 5435 5433
5515 5514 5514 5514 5513 5512 5510 5509 5508 5506 5504 5501 5498 5496 5493 5491 5488 5486 5483 5481 5480 5479 5477 5474 5474 5471 5467 5462 5459 5456 5454 5453 5452 5445 5442 5442 5439 5438 5435 5432 5429 5426 5424
5502 5501 5501 5501 5501 5499 5497 5496 5495 5494 5492 5489 5487 5485 5483 5480 5477 5476 5473 5470 5468 5465 5464 5464 5464 5460 5456 5451 5446 5445 5442 5440 5438 5435 5431 5434 5432 5429 5426 5423 5419 5417 5415
5491 5490 5489 5489 5489 5487 5486 5485 5483 5482 5481 5478 5477 5475 5474 5471 5469 5466 5465 5462 5460 5457 5454 5452 5450 5447 5442 5439 5436 5433 5430 5427 5426 5424 5419 5420 5422 5419 5416 5413 5409 5406 5403
5479 5478 5477 5477 5477 5477 5476 5475 5474 5473 5471 5470 5468 5466 5465 5463 5459 5457 5456 5453 5452 5448 5443 5440 5436 5433 5430 5427 5424 5422 5419 5417 5417 5416 5409 5406 5408 5406 5404 5402 5397 5392 5389
5469 5468 5467 5467 5467 5467 5467 5466 5465 5466 5464 5463 5460 5458 5455 5454 5451 5448 5447 5446 5443 5440 5436 5432 5428 5424 5421 5417 5413 5410 5407 5403 5402 5401 5397 5392 5392 5389 5388 5389 5384 5379 5376